Theta_e
310 310 310 311 312 312 312 315 316 317 317 316 316 315 318 318 319 320 324 320 320 319 319 319 323 323 324 325 326 325 326 327 331 332 332 331 331 333 332 333 332 330 341 341 345
310 309 310 312 312 312 313 316 317 317 316 317 315 317 318 318 319 324 320 320 320 319 320 323 324 324 324 325 326 326 327 328 330 331 331 330 329 330 330 331 329 329 342 343 341
309 310 311 312 312 313 314 317 317 316 317 316 317 318 318 319 323 323 320 320 320 320 323 325 325 325 326 326 327 327 327 329 328 327 328 328 327 327 328 328 328 326 330 336 339
309 311 312 312 313 314 315 317 317 315 317 317 319 319 319 316 325 321 320 320 320 322 323 324 324 325 326 326 326 326 327 326 326 325 325 326 326 326 325 325 326 329 330 332 333
311 312 312 312 313 314 315 316 317 315 318 317 319 319 318 322 323 321 319 320 321 323 324 325 325 326 326 326 325 326 326 325 324 324 324 324 325 326 325 325 326 328 329 330 331
312 312 313 313 314 314 315 316 316 315 318 317 319 319 319 323 321 321 321 321 322 322 324 324 325 325 326 325 326 326 325 325 324 324 324 325 325 325 326 325 326 326 327 327 328
313 313 313 313 314 314 315 316 317 316 318 319 316 316 322 323 321 322 322 323 322 323 323 324 324 324 326 326 325 325 324 325 325 324 324 324 325 326 326 326 327 327 327 328 332
313 313 313 313 313 313 315 316 317 316 318 320 318 318 326 321 322 323 324 324 323 323 323 323 323 324 325 327 325 325 326 326 326 325 324 324 325 327 326 326 327 327 328 330 332
313 313 313 313 312 312 312 315 317 317 318 320 320 323 325 320 323 323 323 324 324 324 324 322 323 325 325 325 326 326 326 327 327 326 326 325 327 328 327 327 328 328 329 330 331
311 311 312 312 312 313 312 314 316 315 317 320 321 322 324 324 323 323 323 323 324 325 324 325 326 327 327 326 326 328 328 328 328 327 326 326 329 329 327 327 328 328 329 330 330
311 311 311 314 319 318 313 315 317 317 321 323 324 326 324 323 322 324 323 324 324 325 327 327 326 328 329 328 327 327 327 327 326 327 327 326 325 329 328 327 327 327 328 328 328
310 311 314 320 320 321 323 326 326 326 326 322 324 324 323 323 324 325 325 326 326 326 327 327 326 328 326 325 325 325 325 326 326 327 326 326 325 326 328 327 327 327 327 326 326
311 311 319 319 321 324 326 324 323 323 327 323 323 324 323 323 325 325 326 326 327 326 326 326 327 325 325 325 326 326 327 327 326 326 326 326 326 326 329 327 327 325 325 324 324
312 312 319 319 322 325 325 323 323 324 330 325 324 325 325 324 325 324 325 326 327 327 326 327 325 325 325 326 326 325 324 325 325 324 323 325 325 327 330 328 327 325 325 324 324
316 314 319 321 326 326 327 324 324 325 339 325 325 325 324 325 325 325 324 327 328 328 326 328 327 326 326 326 325 324 322 321 321 321 322 322 322 324 330 329 328 326 325 325 324
314 319 318 321 323 325 323 324 324 327 332 328 326 326 325 324 325 326 325 325 326 327 327 327 326 325 325 325 324 324 322 323 323 323 324 325 324 326 329 328 326 326 325 324 323
316 318 321 324 326 325 324 323 327 328 330 329 326 325 326 326 326 326 327 328 329 330 330 329 328 326 324 325 324 324 323 323 327 327 326 324 324 325 327 326 324 323 322 322 322
316 315 319 321 324 326 324 326 329 330 329 328 326 326 326 327 326 327 327 328 328 329 328 328 329 328 326 324 323 321 321 321 326 326 323 323 323 328 326 323 323 322 321 321 320
318 317 322 325 326 324 327 329 329 332 329 328 327 326 326 328 327 329 328 329 329 328 327 329 329 325 324 323 321 322 322 321 321 322 324 323 327 325 324 324 322 321 321 320 321
324 330 329 327 325 326 328 330 332 330 328 327 327 327 328 328 329 327 328 330 329 326 326 327 329 327 324 322 320 320 321 321 328 326 323 321 322 325 324 323 322 320 319 319 320
321 331 330 327 325 326 330 329 329 327 327 328 329 330 330 329 329 329 328 328 327 326 324 326 329 327 324 323 322 324 324 322 324 323 325 325 323 324 323 322 321 320 319 319 319
324 328 328 326 325 329 331 329 326 326 326 328 329 329 330 329 329 327 326 330 325 325 325 326 329 329 327 323 322 319 319 321 326 325 325 325 325 324 323 321 320 319 318 317 315
322 323 328 326 327 329 330 329 326 325 326 327 327 327 328 327 327 326 326 325 324 323 328 328 327 331 328 325 324 323 323 322 324 325 326 330 328 324 323 320 319 318 317 315 314
322 325 324 325 323 328 331 329 327 325 326 326 327 326 326 326 325 326 326 324 323 324 317 322 324 326 329 326 324 322 321 322 322 331 325 324 324 322 322 320 319 317 316 314 313
324 323 327 329 328 327 327 329 329 328 325 325 326 326 326 327 327 326 325 325 323 322 320 323 325 324 324 324 323 321 319 319 320 320 324 322 321 321 320 319 317 316 315 313 314
319 323 322 323 322 328 324 327 327 327 327 326 325 326 325 326 327 327 326 326 326 324 324 325 326 323 322 322 322 321 322 321 320 320 321 322 322 319 317 317 316 315 313 315 314
321 320 320 319 322 325 323 325 327 327 326 325 325 326 325 325 324 323 322 323 325 325 326 325 325 326 325 322 323 326 324 323 321 319 320 320 319 317 318 316 316 315 314 314 313
Wind_Speed
2 4 6 8 9 9 10 10 9 7 4 2 1 4 9 10 9 7 3 3 9 8 9 7 9 12 12 16 18 14 12 14 15 13 7 6 2 8 7 13 8 8 20 20 14
3 6 9 9 9 9 11 10 8 6 2 1 5 9 10 7 6 10 3 3 4 5 6 8 12 11 16 21 13 12 12 14 3 15 8 10 11 15 11 16 19 19 22 20 10
5 8 10 9 9 10 11 10 7 4 2 3 10 10 7 4 9 4 3 1 1 4 1 8 10 7 19 16 14 13 9 9 9 13 13 14 4 16 19 13 12 9 14 8 8
8 10 9 9 9 10 10 9 6 3 3 6 12 10 7 7 3 4 4 2 0 3 6 13 9 16 16 7 2 15 6 13 12 10 8 4 12 18 10 10 8 12 7 6 8
10 9 9 9 9 9 9 8 5 2 3 9 13 12 8 10 4 2 1 1 2 9 15 16 15 14 9 3 2 13 6 5 4 0 7 8 11 14 8 8 9 8 5 10 16
8 8 8 8 8 8 9 8 5 2 3 7 11 13 12 16 3 1 2 4 6 8 8 10 12 10 13 5 5 11 2 4 3 9 2 4 3 3 6 3 6 5 6 10 11
7 7 7 6 6 7 7 7 5 2 2 3 8 12 12 6 2 3 4 4 5 7 9 7 9 8 10 2 7 6 7 8 6 4 4 7 8 6 2 2 4 5 7 9 16
5 5 5 4 4 5 6 7 5 3 2 2 7 9 8 2 3 3 3 3 4 4 6 6 7 9 15 6 5 12 13 13 14 7 8 2 4 12 2 1 4 5 7 12 16
4 3 2 2 2 2 4 6 6 4 4 5 7 8 5 2 5 2 4 5 3 3 4 6 6 12 7 10 11 10 11 11 10 12 10 8 6 9 3 3 4 4 7 10 13
3 3 2 2 2 1 3 5 5 5 4 8 12 11 6 3 2 4 3 4 6 4 8 8 10 10 12 11 8 11 6 13 12 13 6 8 9 13 7 2 4 5 6 8 10
3 3 4 4 2 3 6 2 3 5 12 12 5 6 3 2 3 2 3 5 5 9 11 11 9 9 11 13 12 12 13 12 12 8 1 8 15 11 14 3 7 4 6 6 7
4 5 6 4 5 5 3 7 3 8 8 11 7 3 2 4 3 1 5 8 4 10 15 6 12 8 8 7 11 13 15 13 12 3 4 7 16 10 14 9 2 2 7 5 7
4 6 7 6 6 3 1 4 5 6 7 10 10 11 8 8 4 5 6 6 10 7 5 9 9 7 6 8 7 12 14 11 13 16 12 10 16 14 15 12 10 5 5 5 3
3 8 8 7 3 3 4 4 5 4 5 14 9 7 6 7 4 1 3 8 4 7 5 4 8 8 7 3 8 10 13 14 13 12 12 16 13 8 18 12 11 10 7 3 2
4 8 8 5 2 6 1 5 5 2 5 14 14 8 9 11 10 5 1 5 8 3 5 6 1 5 9 11 9 12 14 13 13 12 13 15 10 6 16 12 14 14 9 4 2
4 7 7 1 4 4 4 6 3 5 6 9 10 9 10 11 7 5 5 2 5 9 6 6 5 4 7 7 9 9 12 15 14 11 11 17 14 3 6 6 6 11 7 3 3
2 9 10 6 6 5 6 4 5 8 6 8 11 10 13 8 9 5 7 9 7 6 9 6 12 8 4 9 4 5 10 8 4 8 9 7 2 7 12 12 13 10 11 9 10
2 6 7 6 5 7 4 6 7 12 11 6 3 10 11 11 6 7 5 9 9 4 9 11 6 4 6 3 6 10 4 6 7 8 13 18 7 6 15 11 7 8 11 11 17
2 1 5 4 5 4 8 8 10 11 6 2 7 9 10 6 6 5 9 10 6 9 6 8 3 5 2 4 4 11 4 7 5 10 10 11 10 10 7 3 2 9 8 16 15
5 8 10 6 4 3 7 13 13 2 7 4 8 10 11 9 8 9 7 6 3 5 4 6 8 8 8 3 5 5 7 4 5 3 7 10 12 7 5 11 12 15 17 21 17
5 8 8 5 4 8 9 11 5 8 4 3 9 4 7 7 2 6 8 8 2 2 5 9 4 7 1 8 7 6 7 6 0 4 6 9 5 10 7 10 11 14 19 17 19
5 7 5 4 8 12 12 12 3 1 4 5 6 8 7 8 5 8 4 9 5 5 6 7 4 8 13 9 3 7 10 9 3 7 9 9 10 4 3 8 16 17 19 26 28
8 14 4 6 7 8 7 4 1 3 6 1 4 2 5 5 3 6 6 7 5 1 4 6 3 4 8 9 4 5 7 8 7 5 11 9 9 12 21 18 18 19 23 25 27
7 5 12 7 13 9 12 4 7 3 4 3 4 0 5 7 5 6 2 5 5 4 3 4 5 9 8 15 12 7 9 10 10 6 12 14 18 17 16 15 20 22 23 28 30
6 5 6 4 2 7 6 11 8 8 9 8 5 8 7 5 8 8 8 11 9 7 4 3 7 12 14 16 15 14 15 15 14 15 13 14 16 16 15 17 22 23 27 30 26
7 8 12 16 11 8 7 8 13 11 7 7 8 10 5 6 8 9 8 4 6 8 5 7 7 9 13 14 16 18 14 14 16 14 15 15 14 17 22 22 23 24 28 25 27
11 7 8 11 10 8 11 12 12 8 7 8 8 5 7 6 2 4 6 7 8 5 6 6 8 9 12 13 16 8 14 8 6 11 12 11 14 18 17 19 23 26 26 26 29
Wind_Direction
200 177 164 157 153 150 148 145 141 134 119 72 34 153 162 154 153 155 255 257 256 262 237 243 258 255 252 259 263 272 272 280 357 56 70 77 357 78 31 103 46 67 90 113 135
185 168 159 156 153 151 150 149 143 131 96 63 160 175 182 190 223 255 232 231 253 224 202 243 238 228 243 242 246 244 267 292 15 20 72 100 14 33 11 58 50 56 115 123 125
167 156 154 154 155 153 154 153 147 128 79 140 174 187 201 254 291 146 178 99 44 192 317 297 282 244 250 241 233 240 279 41 39 8 3 55 66 44 20 42 38 16 46 106 146
152 151 154 156 157 158 161 161 155 127 75 169 184 196 217 286 350 113 201 233 46 70 292 258 257 248 259 232 322 269 32 3 49 21 335 6 77 71 35 43 31 49 17 29 19
148 150 153 156 159 164 168 170 164 132 79 179 193 220 247 273 74 21 36 330 189 293 273 264 257 263 273 12 300 268 99 318 49 336 3 38 74 96 69 42 39 54 33 16 9
146 148 151 155 161 169 176 180 178 152 91 176 207 234 276 280 118 301 315 259 282 270 293 290 317 336 310 283 268 3 353 202 162 133 241 199 81 59 89 60 79 26 25 19 6
143 145 148 154 167 178 190 195 197 188 115 143 212 251 284 294 223 261 287 302 291 285 278 275 305 290 340 270 288 281 265 216 203 179 220 280 174 178 129 106 64 27 33 32 32
147 145 149 160 173 190 206 212 216 217 177 198 219 241 271 285 256 265 273 264 306 279 279 295 270 280 283 340 275 259 232 234 151 162 141 205 296 101 125 62 79 48 38 49 45
165 167 168 168 178 204 221 222 227 232 217 223 235 240 250 87 221 230 303 311 309 268 283 290 265 255 232 264 247 209 253 230 156 184 152 179 141 114 136 88 57 43 54 53 43
181 188 174 153 144 159 185 198 210 231 234 215 258 276 205 197 135 254 290 277 268 238 248 235 238 235 221 222 266 335 281 271 154 166 168 251 161 146 133 140 117 66 63 54 46
182 173 153 133 110 134 146 288 205 231 218 255 157 268 116 124 204 234 300 275 261 260 271 230 284 280 16 0 348 323 310 316 314 119 153 284 290 147 129 216 151 110 85 81 72
167 166 146 125 117 141 199 253 353 318 258 231 262 264 157 210 210 196 232 249 206 255 230 263 246 45 345 351 329 317 302 292 288 218 165 287 276 241 148 175 122 130 121 85 68
155 160 151 131 136 137 290 318 311 307 266 183 215 217 202 216 234 102 304 305 304 245 259 267 24 2 2 326 347 316 343 304 335 337 316 256 250 256 151 141 137 134 111 125 78
158 164 162 166 217 217 215 334 333 298 271 165 196 224 179 227 174 31 313 302 268 1 345 360 27 333 312 348 26 303 11 335 315 302 287 303 297 279 147 159 163 161 176 123 58
160 167 179 201 279 278 323 318 287 277 276 135 179 140 181 214 108 158 166 280 299 69 278 44 1 333 301 22 5 311 335 302 291 284 287 283 268 259 142 173 180 184 187 203 246
184 175 179 328 289 320 314 296 301 237 259 154 146 205 205 216 171 128 207 287 340 297 256 319 67 298 355 326 275 304 288 293 270 258 262 262 230 109 133 176 100 147 172 171 287
234 196 193 235 335 299 297 256 224 251 102 153 182 194 202 183 157 211 211 214 249 307 274 210 227 124 353 317 354 273 333 316 290 236 237 50 319 308 96 65 49 26 7 3 328
327 210 216 231 291 305 271 231 255 244 226 97 228 181 218 181 201 169 258 261 226 282 298 298 183 150 118 357 334 295 336 291 320 315 326 335 304 81 77 80 60 3 348 313 293
352 229 213 244 275 306 259 227 231 324 26 102 228 258 216 126 249 189 243 257 62 8 333 330 18 109 68 355 346 9 305 31 327 282 274 275 76 94 89 101 293 351 339 317 3
294 259 249 192 277 272 246 261 297 21 342 322 260 224 242 209 176 225 247 47 86 31 358 298 299 302 120 317 195 276 342 273 197 286 300 316 325 64 40 9 348 335 322 312 350
302 260 161 191 268 254 245 247 215 87 319 304 292 310 290 325 334 314 309 115 65 48 317 303 292 282 329 227 263 191 228 216 359 308 293 294 298 71 22 345 332 324 334 341 323
296 265 152 176 241 238 242 344 98 143 203 239 318 333 327 350 328 298 292 57 63 20 292 48 330 288 281 83 29 299 290 325 298 278 289 320 291 80 312 297 349 344 343 334 328
305 295 216 220 248 256 220 220 239 204 256 259 243 339 42 297 300 258 316 89 74 350 15 358 238 291 280 201 145 255 270 239 236 266 264 280 281 299 328 347 347 346 335 329 324
292 285 203 210 255 291 297 250 185 207 309 254 294 92 253 261 235 278 232 126 110 50 67 353 274 267 262 308 320 273 260 245 243 252 265 265 285 302 332 347 345 338 334 325 323
261 296 1 297 13 291 259 295 267 168 216 213 240 242 253 256 263 227 233 134 172 164 201 240 263 271 269 278 289 292 284 280 273 276 282 292 299 319 357 348 334 337 332 323 340
323 350 342 298 292 293 279 266 269 273 180 220 226 276 228 252 269 309 354 312 272 160 207 201 274 282 281 280 273 268 276 288 279 281 280 287 303 354 342 336 331 331 324 346 336
352 322 294 293 279 254 255 247 247 259 287 221 299 237 236 256 283 353 338 312 295 308 239 221 261 287 287 296 298 274 273 329 359 351 339 318 329 331 334 330 324 329 327 339 327